SITRO-AIS 6 (CHIRKIN)

Last updated on Tue Jul 01 2025 00:03:44 GMT+0000 (Coordinated Universal Time)

1 57192U 23091AC 25181.54506306 .00005495 00000+0 25818-3 0 9994 2 57192 97.5565 238.5383 0012395 253.8461 106.1410 15.19964998110763
UTC large
Height (km)
Speed (km/s)
/
Latitude / Longitude
Inclination (degrees)
Orbital Period (minutes)
Azimuth
Elevation
Range (km)
Doppler Factor

Next 0 passes for location: London (51.5072 / 0.1276)

Sorry there are no passes over London.